Regional Weather Roundup
Issued by NWS Charleston, SC

Current Version | Previous Version | Text Only | Print | Product List | Glossary Off
Versions: 1 2 3 4 5 6 7 8 9 10 11 12 13 14 15 16 17 18 19 20 21 22 23 24 25 26 27 28 29 30 31 32 33 34 35 36 37 38 39 40 41 42 43 44 45 46 47 48 49 50

000
ASUS42 KCHS 300210
RWRCHS

REGIONAL WEATHER ROUNDUP
NATIONAL WEATHER SERVICE CHARLESTON SC
1000 PM EDT FRI AUG 29 2014

NOTE: "FAIR" INDICATES FEW OR NO CLOUDS BELOW 12,000 FEET WITH NO
SIGNIFICANT WEATHER AND/OR OBSTRUCTIONS TO VISIBILITY.

NOT ALL STATIONS ARE QUALITY CONTROLLED BY THE NATIONAL
WEATHER SERVICE. USE DATA WITH CAUTION...ESPECIALLY
DEWPOINT OBSERVATIONS.

SCZ027-030-031-034>040-042>050-300300-
...SOUTH CAROLINA...

CITY           SKY/WX    TMP DP  RH WIND       PRES   REMARKS
N CHARLESTON   PTCLDY    80  75  84 S3        30.12R
WATERFRONT PRK   N/A     82 N/A N/A SE7         N/A
FORT JOHNSON   NOT AVBL
MOUNT PLEASANT FAIR      77  75  94 CALM      30.12R
JOHNS ISLAND   PTCLDY    79  77  94 CALM      30.12R
PINOPOLIS        N/A     82  75  78 S3        30.04R
MONCKS CORNER    N/A     81  79  94 CALM      30.12R
SUMMERVILLE    FAIR      75  75 100 CALM      30.13R
BEAUFORT MCAS  CLEAR     79  72  79 CALM      30.11R
BEAUFORT ARPT  FAIR      77  73  88 CALM      30.11R
HILTON HEAD IS CLEAR     81  73  78 SE3       30.12R
GEORGETOWN     NOT AVBL
WALTERBORO     MOCLDY    79  68  69 E3        30.13R
ORANGEBURG     MOCLDY    80  67  64 S6        30.12R
BARNWELL       FAIR      82  68  61 SE8       30.11R
AIKEN          FAIR      81  66  61 E7        30.14R
MANNING        FAIR      79  77  94 CALM      30.12R
KINGSTREE      NOT AVBL
COLUMBIA       CLEAR     82  65  56 SE6       30.10R
SUMTER         CLEAR     81  74  78 SE5       30.11R
FLORENCE       CLEAR     79  71  76 S5        30.12R
MYRTLE BEACH   CLEAR     81  73  78 SE9       30.13R
N MYRTLE BEACH CLEAR     81  73  76 S8        30.13R

$$

GAZ063-065-086>088-099>101-113>116-118-119-134-136>141-150-300300-
...GEORGIA...

CITY           SKY/WX    TMP DP  RH WIND       PRES   REMARKS
SAVANNAH ARPT  CLEAR     80  73  79 E5        30.11R
HUNTER AAF     CLEAR     80  74  82 S2        30.08R
FORT STEWART   NOT AVBL
STATESBORO     NOT AVBL
SYLVANIA       CLEAR     77  71  82 CALM      30.11R
CLAXTON        NOT AVBL
THOMSON        CLEAR     76  68  75 CALM      30.12R
AUGUSTA-BUSH   CLEAR     78  67  68 SE9       30.08R
AUGUSTA-DANIEL CLEAR     85  63  47 E7        30.09R
SWAINSBORO     FAIR      86  73  66 SE10      30.10R HX  93
VIDALIA          N/A     82  72  69 SE7       30.10R
ALMA           PTCLDY    82  72  71 SE6       30.09R
WAYCROSS       CLEAR     84  76  77 SE6       30.09R HX  94
JESUP            N/A     81  77  89 CALM      30.10R
BRUNSWICK      CLEAR     84  73  70 SE6       30.10R HX  91
SAINT SIMONS   CLEAR     83  74  74 SE10      30.09R

$$

SCZ027-028-034-036>038-045-046-048>050-GAZ119-141-300300-
...LAKE AND SUPPLEMENTAL COASTAL OBSERVATIONS...

STATION/POSITION TIME  TEMP    WIND        PRES    WAVE   SWELL
                       AIR SEA DIR/SP/G            HT/PER HT/PER/DIR
                 (UTC) (F)     (DEG/KT/KT) (MB)    (FT/S) (FT/S/D)
UPR LAKE MARION  NOT AVBL
WINYAH BAY       0100   82     120/  9     1019.0S
LAKE MURRAY      0100   85     100/  5/  7 1018.3R
ACE BASIN NERRS  0100   79     150/  1     1019.0S
FORT PULASKI     0200   82     130/  5/  8 1019.5R
SAPELO ISLAND    0100   82     140/  6     1019.0S

$$

ANZ835-935-AMZ111-154-330-350-352-354-374-450-454-472-300300-
...C-MAN AND BUOY OBSERVATIONS...

STATION/POSITION TIME  TEMP    WIND        PRES    WAVE   SWELL
                       AIR SEA DIR/SP/G            HT/PER HT/PER/DIR
                 (UTC) (F)     (DEG/KT/KT) (MB)    (FT/S) (FT/S/D)
FOLLY BEACH CMAN 0100   81     120/  7/  8 1019.7R
BUOY 41004       0200   83 83  150/  8/ 10 1019.3R   2/ 8   2/ 8
BUOY 41008       0200   84 85  150/ 14/ 16 1018.9R   2/ 8   2/110/ 8
5E ST. MARYS GA  0200      84                N/A     3/ 8
FRYING PAN BUOY  NOT AVBL
BUOY 41025       0200   78      40/ 12/ 14 1020.9R   4/ 7   3/ 90/ 7
CAPE LOOKOUT NC  0100   80      50/  2/  3 1020.5R
BUOY 41002       0120   81 83  100/  8/ 10 1021.6R   3/ 9   3/100/ 9
BUOY 41010       0200   83 84   50/  2/  4 1019.6R   3/ 8   3/110/ 8
BUOY 41012       NOT AVBL
ST AUGUSTINE FL  0200   78     160/  3/  4 1020.0R
CAPERS NEARSHORE 0100   81     130/  8/ 10   N/A
FRIPP NEARSHORE  NOT AVBL


$$


USA.gov is the U.S. government's official web portal to all federal, state and local government web resources and services.